DW6558 Weather Reports


time (UTC)temp
C
wind
direction
speed
KPH
gust
KPH
rain 1hr
cm
rain 24hr
cm
rain mn
cm
humidity
%
barometer
mb
20260507191744 17 307 20.9 29.0 0.00 0.00 0.00 33 930.9
20260507191241 17 266 3.2 20.9 0.00 0.00 0.00 36 930.8
20260507190738 17 257 16.1 20.9 0.00 0.00 0.00 35 931.0
20260507190236 16 317 3.2 17.7 0.00 0.00 0.00 37 930.8
20260507185735 17 308 12.9 20.9 0.00 0.00 0.00 36 931.0
20260507185231 16 266 9.7 14.5 0.00 0.00 0.00 37 930.9
20260507184729 17 259 24.1 38.6 0.00 0.00 0.00 36 931.1
20260507184227 17 269 8.0 14.5 0.00 0.00 0.00 37 930.9
20260507183723 16 275 9.7 29.0 0.00 0.00 0.00 36 930.9
20260507183220 16 264 12.9 27.4 0.00 0.00 0.00 36 931.1
20260507182717 16 240 17.7 22.5 0.00 0.00 0.00 35 930.9
20260507182212 16 271 11.3 14.5 0.00 0.00 0.00 36 931.2
20260507181709 16 270 19.3 33.8 0.00 0.00 0.00 36 931.1
20260507181206 16 252 12.9 29.0 0.00 0.00 0.00 36 931.0
20260507180702 16 216 11.3 17.7 0.00 0.00 0.00 35 931.0
20260507180159 15 330 11.3 29.0 0.00 0.00 0.00 36 931.1
20260507175655 15 287 20.9 27.4 0.00 0.00 0.00 36 931.2
20260507175152 16 253 11.3 24.1 0.00 0.00 0.00 36 931.3
20260507174649 16 271 17.7 29.0 0.00 0.00 0.00 36 931.3
20260507174148 16 293 8.0 20.9 0.00 0.00 0.00 37 931.3
20260507173644 15 261 12.9 22.5 0.00 0.00 0.00 36 931.5
20260507173141 15 290 3.2 17.7 0.00 0.00 0.00 37 931.3
20260507172637 16 265 9.7 17.7 0.00 0.00 0.00 36 931.2
20260507172135 16 257 4.8 12.9 0.00 0.00 0.00 37 931.6
20260507171629 16 267 14.5 17.7 0.00 0.00 0.00 36 931.3
20260507171127 16 62 12.9 27.4 0.00 0.00 0.00 36 931.6
20260507170624 16 320 9.7 29.0 0.00 0.00 0.00 35 931.5
20260507170121 16 345 12.9 27.4 0.00 0.00 0.00 35 931.7
20260507165616 16 250 17.7 25.7 0.00 0.00 0.00 36 931.8
20260507165113 16 278 6.4 24.1 0.00 0.00 0.00 37 931.7
20260507164609 16 196 8.0 27.4 0.00 0.00 0.00 38 931.8
20260507164106 16 275 11.3 14.5 0.00 0.00 0.00 37 931.7
20260507163604 16 287 4.8 14.5 0.00 0.00 0.00 39 931.9
20260507163102 15 257 3.2 14.5 0.00 0.00 0.00 40 932.0
20260507162601 13 217 12.9 17.7 0.00 0.00 0.00 41 932.1
20260507162059 14 214 9.7 16.1 0.00 0.00 0.00 40 932.0
20260507161555 15 269 8.0 20.9 0.00 0.00 0.00 39 932.1
20260507161051 14 177 9.7 12.9 0.00 0.00 0.00 40 932.3
20260507160548 14 124 0.0 4.8 0.00 0.00 0.00 43 932.3
20260507160044 13 224 6.4 9.7 0.00 0.00 0.00 43 932.4
20260507155539 13 213 8.0 9.7 0.00 0.00 0.00 44 932.5
20260507155037 12 158 0.0 1.6 0.00 0.00 0.00 47 932.4
20260507154534 11 59 0.0 0.0 0.00 0.00 0.00 48 932.5
20260507154031 11 87 0.0 4.8 0.00 0.00 0.00 51 932.4
20260507153528 11 54 0.0 0.0 0.00 0.00 0.00 50 932.6
20260507153024 11 14 0.0 0.0 0.00 0.00 0.00 48 932.6
20260507152519 11 351 0.0 0.0 0.00 0.00 0.00 48 932.5
20260507152016 11 350 0.0 8.0 0.00 0.00 0.00 47 932.4
20260507151513 11 192 4.8 11.3 0.00 0.00 0.00 46 932.5
20260507151010 11 282 1.6 4.8 0.00 0.00 0.00 46 932.4
20260507150506 11 233 3.2 9.7 0.00 0.00 0.00 47 932.4
20260507150003 11 229 3.2 12.9 0.00 0.00 0.00 47 932.3
20260507145458 11 12 0.0 1.6 0.00 0.00 0.00 51 932.4
20260507144955 10 186 0.0 1.6 0.00 0.00 0.00 51 932.5
20260507144452 10 131 0.0 3.2 0.00 0.00 0.00 52 932.5
20260507143949 10 150 0.0 4.8 0.00 0.00 0.00 51 932.4
20260507143447 9 53 0.0 0.0 0.00 0.00 0.00 55 932.5
20260507142943 8 90 0.0 0.0 0.00 0.00 0.00 57 932.5
20260507142439 8 96 0.0 0.0 0.00 0.00 0.00 57 932.9
20260507141937 8 131 0.0 0.0 0.00 0.00 0.00 58 932.8
20260507141432 7 87 0.0 0.0 0.00 0.00 0.00 61 932.7
20260507140929 7 78 0.0 0.0 0.00 0.00 0.00 63 932.7
20260507140426 7 92 0.0 0.0 0.00 0.00 0.00 62 933.3
20260507135924 7 89 0.0 0.0 0.00 0.00 0.00 63 933.1
20260507135420 7 97 0.0 0.0 0.00 0.00 0.00 62 933.2
20260507134918 7 80 0.0 0.0 0.00 0.00 0.00 62 933.5
20260507134414 6 93 0.0 0.0 0.00 0.00 0.00 64 933.7
20260507133910 6 84 0.0 0.0 0.00 0.00 0.00 69 934.0
20260507133406 5 60 0.0 1.6 0.00 0.00 0.00 69 934.1
20260507132905 5 113 6.4 9.7 0.00 0.00 0.00 69 934.4
20260507132400 5 114 1.6 8.0 0.00 0.00 0.00 70 934.4
20260507131858 5 117 8.0 11.3 0.00 0.00 0.00 70 934.1
20260507131354 5 105 4.8 9.7 0.00 0.00 0.00 70 933.1
20260507130851 5 123 0.0 4.8 0.00 0.00 0.00 71 932.1
20260507130348 4 140 0.0 1.6 0.00 0.00 0.00 72 932.0
20260507125847 3 54 0.0 0.0 0.00 0.00 0.00 74 932.1
20260507125344 3 67 0.0 0.0 0.00 0.00 0.00 74 931.9
20260507124842 3 93 0.0 3.2 0.00 0.00 0.00 74 932.1
20260507124338 3 64 0.0 1.6 0.00 0.00 0.00 72 932.0
20260507123837 4 66 0.0 0.0 0.00 0.00 0.00 70 931.9
20260507123333 5 109 0.0 0.0 0.00 0.00 0.00 67 932.0
20260507122830 5 115 0.0 0.0 0.00 0.00 0.00 69 932.0
20260507122325 4 33 0.0 0.0 0.00 0.00 0.00 68 931.9
20260507121822 3 45 0.0 0.0 0.00 0.00 0.00 73 931.9
20260507121317 3 50 0.0 0.0 0.00 0.00 0.00 73 931.9
20260507120814 3 42 0.0 0.0 0.00 0.00 0.00 75 931.8
20260507120310 2 53 0.0 0.0 0.00 0.00 0.00 76 932.0
20260507115806 2 81 0.0 0.0 0.00 0.00 0.00 77 932.0
20260507115306 2 64 0.0 0.0 0.00 0.00 0.00 78 931.8
20260507114758 2 55 0.0 0.0 0.00 0.00 0.00 77 931.7
20260507114256 2 73 0.0 0.0 0.00 0.00 0.00 75 931.9
20260507113753 2 80 0.0 0.0 0.00 0.00 0.00 74 931.9
20260507113249 2 46 0.0 0.0 0.00 0.00 0.00 76 932.1
20260507112748 2 45 0.0 0.0 0.00 0.00 0.00 76 931.8
20260507112244 2 45 0.0 0.0 0.00 0.00 0.00 76 931.7
20260507111742 2 42 1.6 3.2 0.00 0.00 0.00 76 931.9
20260507111238 2 74 0.0 0.0 0.00 0.00 0.00 76 931.8
20260507110734 2 78 0.0 0.0 0.00 0.00 0.00 76 931.9
20260507110231 2 72 0.0 0.0 0.00 0.00 0.00 77 931.9
20260507105728 2 91 0.0 0.0 0.00 0.00 0.00 77 932.1
20260507105224 2 94 0.0 0.0 0.00 0.00 0.00 75 932.3
20260507104721 2 97 0.0 4.8 0.00 0.00 0.00 75 932.3
20260507104218 2 123 6.4 8.0 0.00 0.00 0.00 75 932.4
20260507103714 2 115 0.0 0.0 0.00 0.00 0.00 76 932.4
20260507103210 2 120 0.0 0.0 0.00 0.00 0.00 76 932.3
20260507102707 2 122 0.0 1.6 0.00 0.00 0.00 76 932.3
20260507102204 2 132 0.0 0.0 0.00 0.00 0.00 75 932.6
20260507101659 2 91 0.0 0.0 0.00 0.00 0.00 75 932.7
20260507101155 2 100 0.0 0.0 0.00 0.00 0.00 76 932.3
20260507100653 2 99 0.0 1.6 0.00 0.00 0.00 75 932.6
20260507100151 2 116 0.0 0.0 0.00 0.00 0.00 75 932.5
20260507095648 2 90 0.0 0.0 0.00 0.00 0.00 76 932.6
20260507095145 2 89 0.0 0.0 0.00 0.00 0.00 76 932.9
20260507094641 2 81 0.0 0.0 0.00 0.00 0.00 76 932.6
20260507094138 2 79 0.0 0.0 0.00 0.00 0.00 76 932.7
20260507093635 2 83 0.0 0.0 0.00 0.00 0.00 77 932.6
20260507093134 1 78 0.0 0.0 0.00 0.00 0.00 77 932.7
20260507092631 2 48 0.0 0.0 0.00 0.00 0.00 77 932.7
20260507092127 2 51 0.0 0.0 0.00 0.00 0.00 76 932.8
20260507091624 2 50 0.0 0.0 0.00 0.00 0.00 76 932.8
20260507091119 2 93 0.0 0.0 0.00 0.00 0.00 75 932.7
20260507090616 2 87 0.0 0.0 0.00 0.00 0.00 75 932.9
20260507090113 2 73 0.0 0.0 0.00 0.00 0.00 75 932.9
20260507085610 2 72 0.0 0.0 0.00 0.00 0.00 76 932.7
20260507085106 2 68 0.0 0.0 0.00 0.00 0.00 76 933.1
20260507084603 2 70 0.0 0.0 0.00 0.00 0.00 75 933.2
20260507084100 2 82 0.0 0.0 0.00 0.00 0.00 76 932.8
20260507083556 2 62 0.0 0.0 0.00 0.00 0.00 76 933.1
20260507083054 2 49 0.0 0.0 0.00 0.00 0.00 75 933.1
20260507082549 2 57 0.0 0.0 0.00 0.00 0.00 77 933.2
20260507082046 2 58 0.0 0.0 0.00 0.00 0.00 77 933.2
20260507081542 2 67 0.0 0.0 0.00 0.00 0.00 77 933.1
20260507081040 2 90 0.0 0.0 0.00 0.00 0.00 76 933.2
20260507080535 2 76 0.0 0.0 0.00 0.00 0.00 76 933.2
20260507080032 2 46 0.0 0.0 0.00 0.00 0.00 75 933.1
20260507075527 2 68 0.0 0.0 0.00 0.00 0.00 74 933.2
20260507075024 2 65 0.0 0.0 0.00 0.00 0.00 75 933.2
20260507074520 2 63 0.0 0.0 0.00 0.00 0.00 75 933.4
20260507074019 2 66 0.0 0.0 0.00 0.00 0.00 75 933.4
20260507073515 2 58 0.0 0.0 0.00 0.00 0.00 75 933.2
20260507073012 2 54 0.0 0.0 0.00 0.00 0.00 75 933.3
20260507072509 2 66 0.0 0.0 0.00 0.00 0.00 77 933.3
20260507072006 2 77 0.0 0.0 0.00 0.00 0.00 76 933.5
20260507071504 2 75 0.0 0.0 0.00 0.00 0.00 75 933.3
20260507071000 2 61 0.0 0.0 0.00 0.00 0.00 75 933.4
20260507070457 2 60 0.0 0.0 0.00 0.00 0.00 75 933.4
20260507065954 3 52 0.0 0.0 0.00 0.00 0.00 74 933.5
20260507065451 3 49 0.0 0.0 0.00 0.00 0.00 73 933.4
20260507064948 3 59 0.0 0.0 0.00 0.00 0.00 72 933.4
20260507064446 3 88 0.0 0.0 0.00 0.00 0.00 72 933.6
20260507063943 3 53 0.0 0.0 0.00 0.00 0.00 73 933.4
20260507063440 3 65 0.0 3.2 0.00 0.00 0.00 74 933.5
20260507062937 3 71 0.0 0.0 0.00 0.00 0.00 74 933.3
20260507062434 3 47 0.0 0.0 0.00 0.00 0.00 74 933.3
20260507061932 3 45 0.0 0.0 0.00 0.00 0.00 72 933.5
20260507061429 3 83 0.0 0.0 0.00 0.00 0.00 71 933.5
20260507060928 3 29 0.0 0.0 0.00 0.00 0.00 71 933.4
20260507060424 3 48 0.0 0.0 0.00 0.00 0.00 70 933.6
20260507055921 4 52 0.0 0.0 0.00 0.00 0.00 69 933.4
20260507055416 4 35 0.0 0.0 0.00 0.00 0.00 68 933.5
20260507054914 5 45 0.0 0.0 0.00 0.00 0.00 66 933.4
20260507054409 5 38 0.0 0.0 0.00 0.00 0.00 65 933.4
20260507053907 5 15 0.0 0.0 0.00 0.00 0.00 63 933.5
20260507053404 6 358 0.0 0.0 0.00 0.00 0.00 61 933.3
20260507052903 6 356 0.0 0.0 0.00 0.00 0.00 61 933.3
20260507052400 6 40 0.0 0.0 0.00 0.00 0.00 60 933.4
20260507051857 6 33 0.0 0.0 0.00 0.00 0.00 61 933.4
20260507051354 6 34 0.0 0.0 0.00 0.00 0.00 59 933.1
20260507050851 6 35 0.0 0.0 0.00 0.00 0.00 61 933.3
20260507050348 6 44 0.0 0.0 0.00 0.00 0.00 62 933.5
20260507045845 6 56 0.0 0.0 0.00 0.00 0.00 63 933.3
20260507045341 6 52 0.0 0.0 0.00 0.00 0.00 63 933.3
20260507044838 6 50 0.0 0.0 0.00 0.00 0.00 64 933.5
20260507044335 6 61 0.0 0.0 0.00 0.00 0.00 62 933.4
20260507043830 7 35 0.0 0.0 0.00 0.00 0.00 54 933.3
20260507043327 8 291 0.0 0.0 0.00 0.00 0.00 50 933.4
20260507042824 8 258 0.0 0.0 0.00 0.00 0.00 51 933.2
20260507042319 8 241 0.0 8.0 0.00 0.00 0.00 51 933.3
20260507041817 7 223 8.0 12.9 0.00 0.00 0.00 52 933.2
20260507041313 7 217 4.8 11.3 0.00 0.00 0.00 54 933.4
20260507040810 7 224 6.4 14.5 0.00 0.00 0.00 55 933.3
20260507040306 7 219 8.0 14.5 0.00 0.00 0.00 56 933.2
20260507035802 7 217 0.0 12.9 0.00 0.00 0.00 55 933.4
20260507035257 7 267 3.2 11.3 0.00 0.00 0.00 54 933.3
20260507034756 8 204 4.8 11.3 0.00 0.00 0.00 53 932.9
20260507034252 8 241 0.0 14.5 0.00 0.00 0.00 53 933.3
20260507033751 8 226 8.0 11.3 0.00 0.00 0.00 53 933.3
20260507033248 8 221 1.6 12.9 0.00 0.00 0.00 54 933.2
20260507032745 8 212 4.8 11.3 0.00 0.00 0.00 53 932.9
20260507032241 8 215 0.0 1.6 0.00 0.00 0.00 53 932.8
20260507031738 8 242 0.0 11.3 0.00 0.00 0.00 54 932.7
20260507031235 8 292 6.4 9.7 0.00 0.00 0.00 55 932.9
20260507030731 8 230 0.0 0.0 0.00 0.00 0.00 54 932.5
20260507030229 9 288 0.0 0.0 0.00 0.00 0.00 52 932.4
20260507025726 9 238 0.0 0.0 0.00 0.00 0.00 52 932.3
20260507025223 10 252 0.0 3.2 0.00 0.00 0.00 50 932.3
20260507024721 10 297 0.0 9.7 0.00 0.00 0.00 48 932.4
20260507024218 10 247 0.0 4.8 0.00 0.00 0.00 46 932.3
20260507023713 10 253 0.0 3.2 0.00 0.00 0.00 44 932.1
20260507023211 10 273 0.0 8.0 0.00 0.00 0.00 44 932.1
20260507022708 11 316 0.0 11.3 0.00 0.00 0.00 43 932.3
20260507022204 11 265 1.6 12.9 0.00 0.00 0.00 42 932.0
20260507021700 11 247 1.6 9.7 0.00 0.00 0.00 40 932.1
20260507021155 12 265 1.6 4.8 0.00 0.00 0.00 38 932.0
20260507020654 12 335 1.6 8.0 0.00 0.00 0.00 37 932.3
20260507020149 12 330 0.0 4.8 0.00 0.00 0.00 37 932.6
20260507015648 12 17 3.2 9.7 0.00 0.00 0.00 35 932.7
20260507015145 13 50 0.0 0.0 0.00 0.00 0.00 36 932.7
20260507014641 13 305 0.0 9.7 0.00 0.00 0.00 36 932.7
20260507014138 12 333 1.6 4.8 0.00 0.00 0.00 36 932.9
20260507013635 12 350 1.6 11.3 0.00 0.00 0.00 35 932.6
20260507013132 13 331 8.0 14.5 0.00 0.00 0.00 35 932.6
20260507012629 13 313 11.3 17.7 0.00 0.00 0.00 34 932.5
20260507012124 12 325 11.3 16.1 0.00 0.00 0.00 34 932.4
20260507011623 12 297 12.9 20.9 0.00 0.00 0.00 34 932.6
20260507011119 12 327 11.3 16.1 0.00 0.00 0.00 34 932.6
20260507010614 13 325 11.3 20.9 0.00 0.00 0.00 35 932.5
20260507010110 13 334 8.0 12.9 0.00 0.00 0.00 35 932.6
20260507005608 13 351 3.2 14.5 0.00 0.00 0.00 33 932.7
20260507005103 13 322 1.6 20.9 0.00 0.00 0.00 34 932.7
20260507004600 13 324 14.5 22.5 0.00 0.00 0.00 34 932.6
20260507004058 13 352 3.2 20.9 0.00 0.00 0.00 34 932.5
20260507003554 13 358 9.7 22.5 0.00 0.00 0.00 35 932.6
20260507003049 13 320 6.4 11.3 0.00 0.00 0.00 35 932.9
20260507002546 13 311 1.6 17.7 0.00 0.00 0.00 36 932.7
20260507002041 13 314 16.1 16.1 0.00 0.00 0.00 35 932.7
20260507001538 13 325 6.4 11.3 0.00 0.00 0.00 35 932.6
20260507001036 13 2 6.4 9.7 0.00 0.00 0.00 34 932.5
20260507000532 13 357 6.4 11.3 0.00 0.00 0.00 36 932.7
20260507000027 13 325 0.0 9.7 0.00 0.00 0.00 36 932.7
20260506235525 12 338 4.8 14.5 0.00 0.00 0.00 36 932.7
20260506235021 13 326 14.5 24.1 0.00 0.00 0.00 37 932.9
20260506234519 13 279 1.6 11.3 0.00 0.00 0.00 39 932.8
20260506234016 13 234 1.6 3.2 0.00 0.00 0.00 40 932.8
20260506233512 12 195 1.6 9.7 0.00 0.00 0.00 42 932.9
20260506233009 12 311 6.4 14.5 0.00 0.00 0.00 42 932.7
20260506232505 13 310 14.5 17.7 0.00 0.00 0.00 41 932.7
20260506232001 13 173 0.0 3.2 0.00 0.00 0.00 42 932.7
20260506231458 13 241 0.0 8.0 0.00 0.00 0.00 42 932.9
20260506230956 12 203 0.0 8.0 0.00 0.00 0.00 44 932.9
20260506230451 12 308 16.1 20.9 0.00 0.00 0.00 42 932.7
20260506225948 12 265 1.6 4.8 0.00 0.00 0.00 42 932.8
20260506225446 13 260 4.8 16.1 0.00 0.00 0.00 43 932.7
20260506224943 12 297 0.0 8.0 0.00 0.00 0.00 44 932.8
20260506224440 12 303 3.2 9.7 0.00 0.00 0.00 43 932.7
20260506223936 12 194 8.0 16.1 0.00 0.00 0.00 42 932.8
20260506223432 11 220 8.0 16.1 0.00 0.00 0.00 44 932.9
20260506222929 12 214 8.0 11.3 0.00 0.00 0.00 42 932.7
20260506222426 12 339 3.2 11.3 0.00 0.00 0.00 43 933.2
20260506221923 11 337 3.2 12.9 0.00 0.00 0.00 44 933.1
20260506221420 11 348 0.0 16.1 0.00 0.00 0.00 43 933.2
20260506220918 11 33 1.6 4.8 0.00 0.00 0.00 42 933.2
20260506220413 11 274 0.0 4.8 0.00 0.00 0.00 44 932.9
20260506215910 11 24 0.0 1.6 0.00 0.00 0.00 43 933.2
20260506215406 11 240 0.0 0.0 0.00 0.00 0.00 42 933.2
20260506214902 11 305 8.0 14.5 0.00 0.00 0.00 45 933.2
20260506214359 10 170 0.0 0.0 0.00 0.00 0.00 43 933.4
20260506213857 10 280 8.0 11.3 0.00 0.00 0.00 44 933.2
20260506213354 10 343 4.8 14.5 0.00 0.00 0.00 44 933.4
20260506212851 10 308 8.0 11.3 0.00 0.00 0.00 43 933.3
20260506212347 9 351 0.0 17.7 0.00 0.00 0.00 43 933.5
20260506211842 9 0 0.0 12.9 0.00 0.00 0.00 43 933.6
20260506211338 9 328 4.8 11.3 0.00 0.00 0.00 42 933.5
20260506210835 9 44 0.0 0.0 0.00 0.00 0.00 40 933.7
20260506210332 8 331 4.8 9.7 0.00 0.00 0.00 41 933.7
20260506205830 9 330 6.4 22.5 0.00 0.00 0.00 41 933.6
20260506205325 10 1 8.0 16.1 0.00 0.00 0.00 37 933.3
20260506204822 10 299 0.0 1.6 0.00 0.00 0.00 38 933.5
20260506204320 10 258 1.6 8.0 0.00 0.00 0.00 39 933.6
20260506203817 9 353 0.0 11.3 0.00 0.00 0.00 38 933.4
20260506203314 8 337 0.0 3.2 0.00 0.00 0.00 39 933.5
20260506202811 8 333 6.4 14.5 0.00 0.00 0.00 38 933.5
20260506202308 9 290 9.7 11.3 0.00 0.00 0.00 36 933.6
20260506201804 8 298 11.3 16.1 0.00 0.00 0.00 38 933.5
20260506201302 7 352 8.0 11.3 0.00 0.00 0.00 38 933.5
20260506200759 8 23 0.0 0.0 0.00 0.00 0.00 36 933.5
20260506200255 8 314 1.6 9.7 0.00 0.00 0.00 37 933.4
20260506195751 8 258 0.0 3.2 0.00 0.00 0.00 38 933.5
20260506195248 8 318 1.6 11.3 0.00 0.00 0.00 36 933.4
20260506194745 8 291 0.0 11.3 0.00 0.00 0.00 35 933.4
20260506194241 8 232 0.0 1.6 0.00 0.00 0.00 37 933.6
20260506193740 7 306 1.6 9.7 0.00 0.00 0.00 43 933.4
20260506193236 7 304 8.0 12.9 0.00 0.00 0.00 39 933.3
20260506192732 7 334 6.4 17.7 0.00 0.00 0.00 42 933.5
20260506192229 7 321 12.9 16.1 0.00 0.00 0.00 43 933.3